Torna al catalogo

SL-16 DEB

AttivoSSO
NORAD 25863·DEBRIS·🇷🇺 Russia

Lanciato Jul 17, 1999 da Baikonur Cosmodrome

Loading…

Prossimi Passaggi (prossime 24 ore)

TLE

AggiornatoSource: Space-Track

Epoca: Sep 14, 2026, 03:14 UTC

1 25863U 99039D   26257.13516507  .00000331  00000-0  92690-4 0  9991
2 25863  98.3571 326.6892 0145832 291.9356  96.2056 14.46865621427962

Traccia SL-16 DEB in tempo reale con AllMySat

Download on the App Store